TimeEDT,TemperatureF,Dew PointF,Humidity,Sea Level PressureIn,VisibilityMPH,Wind Direction,Wind SpeedMPH,Gust SpeedMPH,PrecipitationIn,Events,Conditions,WindDirDegrees,DateUTC
12:53 AM,37.0,28.0,70,29.99,10.0,South,3.5,-,N/A,,Clear,190,2012-10-12 04:53:00
1:53 AM,37.4,28.4,70,29.94,10.0,SSW,4.6,-,N/A,,Overcast,210,2012-10-12 05:53:00
2:53 AM,39.0,28.9,67,29.93,10.0,SSW,5.8,-,N/A,,Overcast,200,2012-10-12 06:53:00
3:53 AM,39.2,30.2,70,29.87,10.0,South,5.8,-,N/A,Rain,Light Rain,190,2012-10-12 07:53:00
4:53 AM,41.0,34.0,76,29.86,8.0,SSW,10.4,18.4,0.01,Rain,Light Rain,200,2012-10-12 08:53:00
5:53 AM,41.0,36.0,82,29.85,8.0,South,8.1,-,0.02,Rain,Light Rain,190,2012-10-12 09:53:00
6:53 AM,41.0,37.0,86,29.86,10.0,SSW,5.8,-,0.01,,Overcast,210,2012-10-12 10:53:00
7:53 AM,41.0,37.0,86,29.86,10.0,SW,5.8,-,N/A,,Overcast,230,2012-10-12 11:53:00
8:53 AM,42.1,37.9,85,29.86,10.0,SW,5.8,-,N/A,,Overcast,230,2012-10-12 12:53:00
9:53 AM,43.0,37.9,82,29.86,10.0,SSW,5.8,-,N/A,,Overcast,200,2012-10-12 13:53:00
10:53 AM,44.1,37.9,79,29.86,10.0,SW,8.1,-,N/A,,Overcast,230,2012-10-12 14:53:00
11:53 AM,44.6,33.8,66,29.85,10.0,West,9.2,19.6,N/A,,Mostly Cloudy,270,2012-10-12 15:53:00
12:53 PM,37.4,33.8,87,29.88,3.0,NW,12.7,27.6,N/A,Rain,Heavy Rain,320,2012-10-12 16:53:00
1:25 PM,39.2,33.8,81,29.90,10.0,NW,15.0,21.9,0.01,,Overcast,310,2012-10-12 17:25:00
1:46 PM,41.0,32.0,70,29.91,10.0,NNW,12.7,26.5,0.01,,Overcast,330,2012-10-12 17:46:00
1:53 PM,39.9,32.0,73,29.93,10.0,North,8.1,17.3,0.01,,Overcast,350,2012-10-12 17:53:00
2:03 PM,39.2,30.2,70,29.92,10.0,NNW,12.7,-,N/A,,Overcast,340,2012-10-12 18:03:00
2:53 PM,39.2,28.4,65,29.94,10.0,NNW,15.0,24.2,N/A,,Overcast,340,2012-10-12 18:53:00
3:53 PM,39.9,24.1,53,29.98,10.0,NNW,13.8,21.9,N/A,,Overcast,330,2012-10-12 19:53:00
4:53 PM,41.0,24.1,51,30.00,10.0,NW,12.7,19.6,N/A,,Overcast,320,2012-10-12 20:53:00
5:53 PM,37.4,24.8,60,30.01,10.0,NW,6.9,16.1,N/A,,Scattered Clouds,310,2012-10-12 21:53:00
6:53 PM,36.0,24.1,62,30.07,10.0,NW,6.9,-,N/A,,Scattered Clouds,320,2012-10-12 22:53:00
7:53 PM,35.1,23.0,61,30.10,10.0,NW,5.8,-,N/A,,Clear,320,2012-10-12 23:53:00
8:53 PM,34.0,23.0,64,30.12,10.0,WNW,3.5,-,N/A,,Clear,290,2012-10-13 00:53:00
9:53 PM,33.8,23.0,65,30.11,10.0,West,4.6,-,N/A,,Clear,280,2012-10-13 01:53:00
10:53 PM,32.0,23.0,69,30.15,10.0,Calm,Calm,-,N/A,,Clear,0,2012-10-13 02:53:00
11:53 PM,30.9,24.1,76,30.17,10.0,SW,3.5,-,N/A,,Clear,230,2012-10-13 03:53:00